User: anonymous   Login
Location: Oshawa
(43.9000°N, 78.8670°W)
Time: 09:12:01
(UTC-04:00)
Language:

Iridium 54 - Orbit

View from above orbital plane
View from above orbital plane
View from above satellite
View from above satellite

Ground track
Ground track

The orbit data is extracted from the following two-line orbital elements,

1 25171U 98010C   15085.51717176  .00000448  00000-0  15283-3 0  9996
2 25171 086.3983 330.4982 0002055 083.8689 276.2740 14.34219553895308
Epoch (UTC): 26 March 2015 12:24:43
Eccentricity: 0.0002055
inclination: 86.3983°
perigee height: 776 km
apogee height: 779 km
right ascension of ascending node: 330.4982°
argument of perigee: 83.8689°
revolutions per day: 14.34219553
mean anomaly at epoch: 276.2740°
orbit number at epoch: 89530

The dashed part of the orbit path shows where the satellite is in the earth's shadow,  

DLR